| time (UTC) | temp F | wind direction | speed MPH | gust MPH | rain 1hr in | rain 24hr in | rain mn in | humidity % | barometer mb |
| 20260510033204 | 51 | 142 | 2.0 | 4.0 | 0.00 | 0.52 | 0.52 | 98 | 1005.7 |
| 20260510032659 | 51 | 189 | 1.0 | 3.0 | 0.00 | 0.52 | 0.52 | 99 | 1006.0 |
| 20260510032154 | 51 | 95 | 2.0 | 4.0 | 0.00 | 0.52 | 0.52 | 99 | 1005.8 |
| 20260510031649 | 51 | 135 | 3.0 | 5.0 | 0.00 | 0.52 | 0.52 | 99 | 1006.0 |
| 20260510031147 | 51 | 186 | 2.0 | 4.0 | 0.00 | 0.52 | 0.52 | 99 | 1005.9 |
| 20260510030641 | 51 | 272 | 0.0 | 3.0 | 0.00 | 0.52 | 0.52 | 99 | 1005.8 |
| 20260510030139 | 51 | 121 | 3.0 | 4.0 | 0.00 | 0.52 | 0.52 | 98 | 1005.8 |
| 20260510025636 | 51 | 112 | 0.0 | 4.0 | 0.00 | 0.52 | 0.52 | 98 | 1006.0 |
| 20260510025133 | 51 | 135 | 3.0 | 3.0 | 0.00 | 0.52 | 0.52 | 98 | 1006.0 |
| 20260510024630 | 52 | 116 | 3.0 | 5.0 | 0.00 | 0.52 | 0.52 | 97 | 1005.9 |
| 20260510024126 | 52 | 137 | 2.0 | 2.0 | 0.00 | 0.52 | 0.52 | 97 | 1006.0 |
| 20260510023622 | 52 | 121 | 3.0 | 4.0 | 0.00 | 0.52 | 0.52 | 97 | 1006.0 |
| 20260510023120 | 52 | 166 | 4.0 | 6.0 | 0.00 | 0.52 | 0.52 | 97 | 1006.1 |
| 20260510022619 | 52 | 153 | 3.0 | 4.0 | 0.00 | 0.52 | 0.52 | 97 | 1006.1 |
| 20260510022114 | 52 | 168 | 2.0 | 4.0 | 0.00 | 0.52 | 0.52 | 97 | 1005.9 |
| 20260510021610 | 53 | 132 | 2.0 | 4.0 | 0.00 | 0.52 | 0.52 | 96 | 1006.1 |
| 20260510021108 | 53 | 180 | 2.0 | 6.0 | 0.00 | 0.52 | 0.52 | 96 | 1006.0 |
| 20260510020601 | 53 | 102 | 1.0 | 4.0 | 0.00 | 0.52 | 0.52 | 96 | 1005.8 |
| 20260510020057 | 53 | 101 | 1.0 | 4.0 | 0.00 | 0.52 | 0.52 | 96 | 1006.1 |
| 20260510015553 | 53 | 131 | 4.0 | 5.0 | 0.00 | 0.52 | 0.52 | 95 | 1005.9 |
| 20260510015050 | 53 | 134 | 2.0 | 6.0 | 0.00 | 0.52 | 0.52 | 95 | 1005.9 |
| 20260510014546 | 53 | 146 | 5.0 | 7.0 | 0.00 | 0.52 | 0.52 | 95 | 1005.6 |
| 20260510014043 | 53 | 269 | 4.0 | 5.0 | 0.00 | 0.52 | 0.52 | 95 | 1005.7 |
| 20260510013532 | 53 | 134 | 5.0 | 8.0 | 0.00 | 0.52 | 0.52 | 95 | 1005.4 |
| 20260510013028 | 53 | 187 | 2.0 | 6.0 | 0.00 | 0.52 | 0.52 | 96 | 1005.5 |
| 20260510012527 | 53 | 240 | 2.0 | 5.0 | 0.00 | 0.52 | 0.52 | 96 | 1005.4 |
| 20260510012024 | 53 | 200 | 2.0 | 8.0 | 0.00 | 0.52 | 0.52 | 96 | 1005.4 |
| 20260510011519 | 52 | 188 | 2.0 | 6.0 | 0.00 | 0.52 | 0.52 | 97 | 1005.4 |
| 20260510011015 | 52 | 192 | 2.0 | 4.0 | 0.00 | 0.52 | 0.52 | 98 | 1005.5 |
| 20260510010512 | 52 | 179 | 3.0 | 5.0 | 0.00 | 0.52 | 0.52 | 97 | 1005.4 |
| 20260510010009 | 52 | 146 | 0.0 | 4.0 | 0.00 | 0.52 | 0.52 | 98 | 1005.2 |
| 20260510005504 | 52 | 145 | 3.0 | 6.0 | 0.00 | 0.52 | 0.52 | 98 | 1005.3 |
| 20260510005002 | 52 | 167 | 4.0 | 5.0 | 0.00 | 0.52 | 0.52 | 98 | 1005.1 |
| 20260510004459 | 51 | 110 | 0.0 | 3.0 | 0.00 | 0.52 | 0.52 | 98 | 1005.4 |
| 20260510003957 | 52 | 73 | 1.0 | 4.0 | 0.00 | 0.52 | 0.52 | 98 | 1005.4 |
| 20260510003454 | 52 | 191 | 3.0 | 5.0 | 0.00 | 0.52 | 0.52 | 98 | 1005.2 |
| 20260510002949 | 52 | 126 | 3.0 | 4.0 | 0.00 | 0.52 | 0.52 | 98 | 1005.1 |
| 20260510002445 | 52 | 162 | 4.0 | 12.0 | 0.00 | 0.52 | 0.52 | 98 | 1005.2 |
| 20260510001942 | 52 | 195 | 4.0 | 5.0 | 0.00 | 0.52 | 0.52 | 98 | 1005.0 |
| 20260510001439 | 52 | 35 | 1.0 | 6.0 | 0.00 | 0.52 | 0.52 | 98 | 1004.9 |
| 20260510000937 | 52 | 150 | 2.0 | 7.0 | 0.00 | 0.52 | 0.52 | 99 | 1004.7 |
| 20260510000433 | 52 | 99 | 3.0 | 4.0 | 0.00 | 0.52 | 0.52 | 99 | 1004.8 |
| 20260509235929 | 52 | 149 | 3.0 | 7.0 | 0.05 | 0.52 | 0.52 | 99 | 1005.0 |
| 20260509235426 | 52 | 166 | 5.0 | 6.0 | 0.14 | 0.52 | 0.52 | 99 | 1005.1 |
| 20260509234922 | 51 | 98 | 8.0 | 9.0 | 0.24 | 0.51 | 0.51 | 99 | 1004.5 |
| 20260509234419 | 51 | 132 | 5.0 | 7.0 | 0.28 | 0.49 | 0.49 | 99 | 1005.5 |
| 20260509233918 | 51 | 151 | 3.0 | 4.0 | 0.31 | 0.47 | 0.47 | 99 | 1006.1 |
| 20260509233414 | 51 | 100 | 2.0 | 5.0 | 0.33 | 0.43 | 0.43 | 99 | 1006.1 |
| 20260509232910 | 51 | 100 | 4.0 | 11.0 | 0.42 | 0.41 | 0.41 | 99 | 1006.1 |
| 20260509232403 | 51 | 152 | 1.0 | 4.0 | 0.31 | 0.37 | 0.37 | 99 | 1006.1 |
| 20260509231858 | 51 | 190 | 2.0 | 4.0 | 0.26 | 0.33 | 0.33 | 99 | 1006.0 |
| 20260509231355 | 51 | 87 | 3.0 | 4.0 | 0.66 | 0.31 | 0.31 | 98 | 1006.0 |
| 20260509230853 | 51 | 273 | 5.0 | 8.0 | 0.92 | 0.28 | 0.28 | 98 | 1005.9 |
| 20260509230350 | 51 | 78 | 2.0 | 4.0 | 0.76 | 0.19 | 0.19 | 97 | 1006.3 |
| 20260509225845 | 51 | 286 | 4.0 | 6.0 | 0.42 | 0.11 | 0.11 | 96 | 1005.9 |
| 20260509225342 | 51 | 198 | 4.0 | 11.0 | 0.24 | 0.06 | 0.06 | 94 | 1005.5 |
| 20260509224838 | 53 | 152 | 4.0 | 10.0 | 0.07 | 0.04 | 0.04 | 91 | 1005.2 |
| 20260509224334 | 56 | 281 | 7.0 | 11.0 | 0.00 | 0.02 | 0.02 | 83 | 1005.1 |
| 20260509223831 | 62 | 359 | 2.0 | 3.0 | 0.00 | 0.02 | 0.02 | 71 | 1003.6 |
| 20260509223328 | 63 | 251 | 2.0 | 3.0 | 0.00 | 0.02 | 0.02 | 70 | 1003.4 |
| 20260509222825 | 63 | 53 | 2.0 | 3.0 | 0.00 | 0.02 | 0.02 | 65 | 1003.1 |
| 20260509222320 | 64 | 294 | 2.0 | 3.0 | 0.00 | 0.02 | 0.02 | 64 | 1003.0 |
| 20260509221816 | 65 | 77 | 2.0 | 10.0 | 0.00 | 0.02 | 0.02 | 61 | 1002.9 |
| 20260509221313 | 65 | 201 | 4.0 | 8.0 | 0.00 | 0.02 | 0.02 | 58 | 1002.7 |
| 20260509220808 | 65 | 171 | 5.0 | 8.0 | 0.00 | 0.02 | 0.02 | 58 | 1002.4 |
| 20260509220305 | 65 | 231 | 2.0 | 10.0 | 0.00 | 0.02 | 0.02 | 59 | 1002.5 |
| 20260509215800 | 65 | 251 | 7.0 | 10.0 | 0.00 | 0.02 | 0.02 | 58 | 1002.5 |
| 20260509215257 | 65 | 182 | 4.0 | 6.0 | 0.00 | 0.02 | 0.02 | 59 | 1002.5 |
| 20260509214754 | 66 | 162 | 3.0 | 10.0 | 0.00 | 0.02 | 0.02 | 59 | 1002.6 |
| 20260509214251 | 66 | 124 | 10.0 | 11.0 | 0.00 | 0.02 | 0.02 | 59 | 1002.4 |
| 20260509213748 | 66 | 180 | 3.0 | 4.0 | 0.00 | 0.02 | 0.02 | 61 | 1002.5 |
| 20260509213244 | 66 | 207 | 6.0 | 11.0 | 0.00 | 0.02 | 0.02 | 57 | 1002.3 |
| 20260509212741 | 66 | 192 | 5.0 | 11.0 | 0.00 | 0.02 | 0.02 | 58 | 1002.2 |
| 20260509212239 | 66 | 205 | 9.0 | 13.0 | 0.00 | 0.02 | 0.02 | 58 | 1002.3 |
| 20260509211734 | 67 | 224 | 8.0 | 15.0 | 0.00 | 0.02 | 0.02 | 57 | 1002.2 |
| 20260509211230 | 66 | 184 | 5.0 | 14.0 | 0.00 | 0.02 | 0.02 | 59 | 1002.2 |
| 20260509210727 | 66 | 227 | 6.0 | 10.0 | 0.00 | 0.02 | 0.02 | 57 | 1002.4 |
| 20260509210225 | 67 | 200 | 3.0 | 17.0 | 0.00 | 0.02 | 0.02 | 56 | 1002.4 |
| 20260509205724 | 67 | 204 | 7.0 | 15.0 | 0.00 | 0.02 | 0.02 | 58 | 1002.4 |
| 20260509205224 | 67 | 176 | 6.0 | 21.0 | 0.00 | 0.02 | 0.02 | 58 | 1002.4 |
| 20260509204721 | 67 | 161 | 6.0 | 13.0 | 0.00 | 0.02 | 0.02 | 58 | 1002.5 |
| 20260509204217 | 68 | 204 | 11.0 | 14.0 | 0.00 | 0.02 | 0.02 | 57 | 1002.7 |
| 20260509203713 | 66 | 225 | 12.0 | 19.0 | 0.00 | 0.02 | 0.02 | 57 | 1002.8 |
| 20260509203211 | 67 | 210 | 8.0 | 14.0 | 0.00 | 0.02 | 0.02 | 57 | 1002.7 |
| 20260509202707 | 67 | 187 | 5.0 | 8.0 | 0.00 | 0.02 | 0.02 | 60 | 1003.0 |
| 20260509202202 | 67 | 161 | 7.0 | 12.0 | 0.00 | 0.02 | 0.02 | 57 | 1003.1 |
| 20260509201657 | 65 | 196 | 7.0 | 10.0 | 0.00 | 0.02 | 0.02 | 60 | 1003.1 |
| 20260509201154 | 64 | 184 | 6.0 | 15.0 | 0.00 | 0.02 | 0.02 | 60 | 1003.1 |
| 20260509200651 | 65 | 172 | 6.0 | 13.0 | 0.00 | 0.02 | 0.02 | 61 | 1003.4 |
| 20260509200145 | 64 | 190 | 8.0 | 9.0 | 0.00 | 0.02 | 0.02 | 61 | 1003.5 |
| 20260509195641 | 65 | 178 | 10.0 | 14.0 | 0.00 | 0.02 | 0.02 | 60 | 1003.4 |
| 20260509195136 | 66 | 150 | 2.0 | 10.0 | 0.00 | 0.02 | 0.02 | 59 | 1003.3 |
| 20260509194631 | 66 | 167 | 3.0 | 14.0 | 0.00 | 0.02 | 0.02 | 59 | 1003.4 |
| 20260509194129 | 66 | 139 | 1.0 | 12.0 | 0.00 | 0.02 | 0.02 | 61 | 1003.2 |
| 20260509193624 | 67 | 195 | 11.0 | 12.0 | 0.00 | 0.02 | 0.02 | 59 | 1003.3 |
| 20260509193120 | 68 | 158 | 4.0 | 9.0 | 0.00 | 0.02 | 0.02 | 58 | 1003.3 |
| 20260509192617 | 67 | 173 | 9.0 | 13.0 | 0.00 | 0.02 | 0.02 | 57 | 1003.5 |
| 20260509192112 | 67 | 232 | 3.0 | 10.0 | 0.00 | 0.02 | 0.02 | 58 | 1003.4 |
| 20260509191607 | 66 | 213 | 7.0 | 17.0 | 0.00 | 0.02 | 0.02 | 59 | 1003.4 |
| 20260509191103 | 67 | 178 | 9.0 | 10.0 | 0.00 | 0.02 | 0.02 | 57 | 1003.5 |
| 20260509190600 | 68 | 186 | 6.0 | 9.0 | 0.00 | 0.02 | 0.02 | 56 | 1003.8 |
| 20260509190058 | 66 | 126 | 5.0 | 17.0 | 0.00 | 0.02 | 0.02 | 57 | 1004.1 |
| 20260509185555 | 65 | 200 | 4.0 | 9.0 | 0.00 | 0.02 | 0.02 | 60 | 1004.0 |
| 20260509185051 | 68 | 285 | 6.0 | 8.0 | 0.00 | 0.02 | 0.02 | 60 | 1003.9 |
| 20260509184549 | 68 | 133 | 3.0 | 6.0 | 0.00 | 0.02 | 0.02 | 60 | 1004.0 |
| 20260509184045 | 69 | 64 | 3.0 | 4.0 | 0.00 | 0.02 | 0.02 | 61 | 1004.0 |
| 20260509183541 | 66 | 194 | 5.0 | 16.0 | 0.00 | 0.02 | 0.02 | 57 | 1004.2 |
| 20260509183036 | 65 | 243 | 4.0 | 10.0 | 0.00 | 0.02 | 0.02 | 59 | 1004.3 |
| 20260509182533 | 66 | 127 | 5.0 | 9.0 | 0.00 | 0.02 | 0.02 | 61 | 1004.3 |
| 20260509182025 | 66 | 203 | 2.0 | 9.0 | 0.00 | 0.02 | 0.02 | 63 | 1004.4 |
| 20260509181523 | 65 | 165 | 2.0 | 11.0 | 0.00 | 0.02 | 0.02 | 62 | 1004.3 |
| 20260509181020 | 64 | 195 | 4.0 | 12.0 | 0.00 | 0.02 | 0.02 | 64 | 1004.4 |
| 20260509180515 | 66 | 197 | 6.0 | 9.0 | 0.00 | 0.02 | 0.02 | 63 | 1004.3 |
| 20260509180014 | 64 | 170 | 4.0 | 11.0 | 0.00 | 0.02 | 0.02 | 65 | 1004.4 |
| 20260509175508 | 63 | 200 | 5.0 | 13.0 | 0.00 | 0.02 | 0.02 | 68 | 1004.5 |
| 20260509175005 | 64 | 229 | 3.0 | 6.0 | 0.00 | 0.02 | 0.02 | 68 | 1004.6 |
| 20260509174501 | 63 | 235 | 2.0 | 11.0 | 0.00 | 0.02 | 0.02 | 68 | 1004.6 |
| 20260509173956 | 63 | 91 | 2.0 | 7.0 | 0.00 | 0.02 | 0.02 | 69 | 1004.8 |
| 20260509173451 | 63 | 221 | 3.0 | 8.0 | 0.00 | 0.02 | 0.02 | 70 | 1004.7 |
| 20260509172948 | 62 | 129 | 2.0 | 13.0 | 0.00 | 0.02 | 0.02 | 70 | 1004.5 |
| 20260509172445 | 64 | 226 | 0.0 | 8.0 | 0.00 | 0.02 | 0.02 | 70 | 1004.6 |
| 20260509171940 | 63 | 168 | 5.0 | 7.0 | 0.00 | 0.02 | 0.02 | 75 | 1004.6 |
| 20260509171437 | 64 | 123 | 5.0 | 6.0 | 0.00 | 0.02 | 0.02 | 71 | 1004.6 |
| 20260509170933 | 62 | 160 | 7.0 | 10.0 | 0.00 | 0.02 | 0.02 | 72 | 1004.9 |
| 20260509170429 | 62 | 170 | 4.0 | 7.0 | 0.00 | 0.02 | 0.02 | 73 | 1005.1 |
| 20260509165925 | 60 | 286 | 4.0 | 9.0 | 0.00 | 0.02 | 0.02 | 75 | 1005.1 |
| 20260509165419 | 61 | 180 | 2.0 | 5.0 | 0.00 | 0.02 | 0.02 | 75 | 1005.4 |
| 20260509164915 | 60 | 108 | 2.0 | 8.0 | 0.00 | 0.02 | 0.02 | 75 | 1005.2 |
| 20260509164411 | 61 | 132 | 1.0 | 6.0 | 0.00 | 0.02 | 0.02 | 74 | 1005.1 |
| 20260509163907 | 62 | 154 | 2.0 | 3.0 | 0.00 | 0.02 | 0.02 | 76 | 1005.1 |
| 20260509163404 | 60 | 292 | 5.0 | 7.0 | 0.00 | 0.02 | 0.02 | 78 | 1005.3 |
| 20260509162903 | 60 | 143 | 4.0 | 9.0 | 0.00 | 0.02 | 0.02 | 77 | 1005.5 |
| 20260509162402 | 60 | 200 | 2.0 | 5.0 | 0.00 | 0.02 | 0.02 | 77 | 1005.5 |
| 20260509161858 | 60 | 204 | 5.0 | 10.0 | 0.00 | 0.02 | 0.02 | 77 | 1005.5 |
| 20260509161354 | 60 | 193 | 4.0 | 9.0 | 0.00 | 0.02 | 0.02 | 77 | 1005.3 |
| 20260509160850 | 59 | 159 | 2.0 | 9.0 | 0.00 | 0.02 | 0.02 | 79 | 1005.5 |
| 20260509160346 | 59 | 166 | 9.0 | 10.0 | 0.00 | 0.02 | 0.02 | 79 | 1005.5 |
| 20260509155841 | 59 | 187 | 5.0 | 8.0 | 0.00 | 0.02 | 0.02 | 79 | 1005.6 |
| 20260509155338 | 59 | 141 | 2.0 | 8.0 | 0.00 | 0.02 | 0.02 | 81 | 1005.5 |
| 20260509154834 | 59 | 144 | 8.0 | 9.0 | 0.00 | 0.02 | 0.02 | 80 | 1005.8 |
| 20260509154331 | 58 | 198 | 4.0 | 9.0 | 0.00 | 0.02 | 0.02 | 82 | 1005.7 |
| 20260509153828 | 58 | 289 | 6.0 | 6.0 | 0.00 | 0.02 | 0.02 | 82 | 1005.6 |
| 20260509153324 | 58 | 123 | 5.0 | 9.0 | 0.00 | 0.02 | 0.02 | 82 | 1005.6 |
| 20260509152822 | 58 | 174 | 0.0 | 6.0 | 0.00 | 0.02 | 0.02 | 81 | 1005.6 |
| 20260509152317 | 58 | 140 | 3.0 | 8.0 | 0.00 | 0.02 | 0.02 | 83 | 1005.7 |
| 20260509151815 | 57 | 180 | 3.0 | 6.0 | 0.00 | 0.02 | 0.02 | 85 | 1005.4 |
| 20260509151311 | 56 | 142 | 4.0 | 5.0 | 0.00 | 0.02 | 0.02 | 85 | 1005.5 |
| 20260509150810 | 56 | 178 | 3.0 | 7.0 | 0.00 | 0.02 | 0.02 | 86 | 1005.5 |
| 20260509150307 | 56 | 190 | 5.0 | 11.0 | 0.00 | 0.02 | 0.02 | 86 | 1005.7 |
| 20260509145804 | 56 | 133 | 3.0 | 3.0 | 0.00 | 0.02 | 0.02 | 86 | 1005.5 |
| 20260509145306 | 56 | 141 | 3.0 | 5.0 | 0.00 | 0.02 | 0.02 | 88 | 1005.6 |
| 20260509144800 | 55 | 194 | 2.0 | 9.0 | 0.00 | 0.02 | 0.02 | 87 | 1005.6 |
| 20260509144258 | 55 | 180 | 4.0 | 10.0 | 0.00 | 0.02 | 0.02 | 87 | 1005.7 |
| 20260509143754 | 56 | 174 | 4.0 | 6.0 | 0.00 | 0.02 | 0.02 | 87 | 1005.8 |
| 20260509143252 | 55 | 151 | 2.0 | 6.0 | 0.00 | 0.02 | 0.02 | 88 | 1005.7 |
| 20260509142747 | 55 | 123 | 7.0 | 9.0 | 0.00 | 0.02 | 0.02 | 88 | 1005.7 |
| 20260509142244 | 55 | 189 | 4.0 | 5.0 | 0.00 | 0.02 | 0.02 | 88 | 1005.7 |
| 20260509141740 | 55 | 141 | 3.0 | 4.0 | 0.00 | 0.02 | 0.02 | 89 | 1005.7 |
| 20260509141237 | 55 | 178 | 3.0 | 5.0 | 0.00 | 0.02 | 0.02 | 90 | 1005.7 |
| 20260509140734 | 54 | 104 | 3.0 | 5.0 | 0.00 | 0.02 | 0.02 | 90 | 1005.7 |
| 20260509140231 | 54 | 196 | 4.0 | 5.0 | 0.00 | 0.02 | 0.02 | 90 | 1005.5 |
| 20260509135728 | 54 | 151 | 6.0 | 9.0 | 0.00 | 0.02 | 0.02 | 90 | 1005.8 |
| 20260509135226 | 54 | 168 | 4.0 | 7.0 | 0.00 | 0.02 | 0.02 | 91 | 1005.7 |
| 20260509134723 | 54 | 180 | 2.0 | 6.0 | 0.00 | 0.02 | 0.02 | 90 | 1005.6 |
| 20260509134220 | 53 | 164 | 4.0 | 11.0 | 0.00 | 0.02 | 0.02 | 90 | 1005.7 |
| 20260509133717 | 54 | 144 | 4.0 | 6.0 | 0.00 | 0.02 | 0.02 | 90 | 1005.7 |
| 20260509133214 | 53 | 177 | 1.0 | 5.0 | 0.00 | 0.02 | 0.02 | 91 | 1005.7 |
| 20260509132713 | 54 | 120 | 6.0 | 6.0 | 0.00 | 0.02 | 0.02 | 90 | 1005.9 |
| 20260509132211 | 53 | 127 | 2.0 | 6.0 | 0.00 | 0.02 | 0.02 | 91 | 1005.8 |
| 20260509131707 | 53 | 80 | 5.0 | 6.0 | 0.00 | 0.02 | 0.02 | 91 | 1005.8 |
| 20260509131204 | 53 | 137 | 4.0 | 5.0 | 0.00 | 0.02 | 0.02 | 91 | 1006.0 |
| 20260509130659 | 53 | 170 | 2.0 | 6.0 | 0.00 | 0.02 | 0.02 | 92 | 1005.8 |
| 20260509130156 | 53 | 113 | 3.0 | 6.0 | 0.00 | 0.02 | 0.02 | 92 | 1005.7 |
| 20260509125652 | 53 | 170 | 5.0 | 6.0 | 0.00 | 0.02 | 0.02 | 92 | 1006.0 |
| 20260509125149 | 53 | 83 | 2.0 | 5.0 | 0.00 | 0.02 | 0.02 | 92 | 1006.1 |
| 20260509124646 | 53 | 150 | 2.0 | 6.0 | 0.00 | 0.02 | 0.02 | 92 | 1006.0 |
| 20260509124143 | 52 | 115 | 3.0 | 6.0 | 0.00 | 0.02 | 0.02 | 93 | 1006.0 |
| 20260509123641 | 52 | 134 | 4.0 | 6.0 | 0.00 | 0.02 | 0.02 | 93 | 1006.2 |
| 20260509123137 | 52 | 215 | 7.0 | 8.0 | 0.00 | 0.02 | 0.02 | 93 | 1006.1 |
| 20260509122633 | 52 | 120 | 1.0 | 6.0 | 0.00 | 0.02 | 0.02 | 94 | 1006.3 |
| 20260509122130 | 52 | 119 | 2.0 | 8.0 | 0.00 | 0.02 | 0.02 | 94 | 1006.3 |
| 20260509121626 | 52 | 131 | 0.0 | 6.0 | 0.00 | 0.02 | 0.02 | 95 | 1006.4 |
| 20260509121125 | 51 | 123 | 4.0 | 7.0 | 0.00 | 0.02 | 0.02 | 94 | 1006.5 |
| 20260509120622 | 51 | 126 | 3.0 | 5.0 | 0.00 | 0.02 | 0.02 | 94 | 1006.5 |
| 20260509120120 | 52 | 149 | 2.0 | 6.0 | 0.00 | 0.02 | 0.02 | 95 | 1006.6 |
| 20260509115617 | 51 | 234 | 3.0 | 5.0 | 0.00 | 0.02 | 0.02 | 95 | 1006.3 |
| 20260509115115 | 51 | 110 | 4.0 | 4.0 | 0.00 | 0.02 | 0.02 | 95 | 1006.5 |
| 20260509114613 | 51 | 144 | 2.0 | 9.0 | 0.00 | 0.02 | 0.02 | 95 | 1006.4 |
| 20260509114112 | 51 | 139 | 3.0 | 4.0 | 0.00 | 0.02 | 0.02 | 96 | 1006.0 |
| 20260509113609 | 51 | 140 | 2.0 | 5.0 | 0.00 | 0.02 | 0.02 | 96 | 1006.2 |
| 20260509113107 | 51 | 164 | 2.0 | 4.0 | 0.00 | 0.02 | 0.02 | 96 | 1006.2 |
| 20260509112603 | 51 | 92 | 3.0 | 4.0 | 0.00 | 0.02 | 0.02 | 96 | 1006.2 |
| 20260509112100 | 51 | 168 | 3.0 | 6.0 | 0.00 | 0.02 | 0.02 | 96 | 1006.1 |
| 20260509111557 | 51 | 148 | 4.0 | 5.0 | 0.00 | 0.02 | 0.02 | 96 | 1006.1 |
| 20260509111054 | 50 | 159 | 7.0 | 9.0 | 0.00 | 0.02 | 0.02 | 97 | 1006.2 |
| 20260509110551 | 50 | 141 | 1.0 | 4.0 | 0.00 | 0.02 | 0.02 | 97 | 1006.2 |
| 20260509110048 | 50 | 185 | 2.0 | 6.0 | 0.00 | 0.02 | 0.02 | 97 | 1006.2 |
| 20260509105547 | 50 | 120 | 2.0 | 4.0 | 0.00 | 0.02 | 0.02 | 97 | 1006.1 |
| 20260509105044 | 50 | 119 | 2.0 | 5.0 | 0.00 | 0.02 | 0.02 | 97 | 1006.1 |
| 20260509104541 | 50 | 139 | 1.0 | 4.0 | 0.00 | 0.02 | 0.02 | 97 | 1006.2 |
| 20260509104037 | 50 | 118 | 3.0 | 5.0 | 0.00 | 0.02 | 0.02 | 97 | 1006.0 |
| 20260509103535 | 50 | 116 | 2.0 | 3.0 | 0.00 | 0.02 | 0.02 | 97 | 1006.3 |
| 20260509103033 | 50 | 139 | 1.0 | 5.0 | 0.00 | 0.02 | 0.02 | 97 | 1006.2 |
| 20260509102530 | 50 | 38 | 0.0 | 3.0 | 0.00 | 0.02 | 0.02 | 97 | 1006.3 |
| 20260509102027 | 50 | 146 | 3.0 | 3.0 | 0.00 | 0.02 | 0.02 | 97 | 1006.4 |
| 20260509101523 | 50 | 76 | 2.0 | 3.0 | 0.00 | 0.02 | 0.02 | 97 | 1006.3 |
| 20260509101020 | 50 | 213 | 2.0 | 4.0 | 0.00 | 0.02 | 0.02 | 97 | 1006.3 |
| 20260509100518 | 50 | 164 | 2.0 | 5.0 | 0.00 | 0.02 | 0.02 | 97 | 1006.3 |
| 20260509100015 | 50 | 144 | 2.0 | 4.0 | 0.00 | 0.02 | 0.02 | 97 | 1006.4 |
| 20260509095511 | 50 | 211 | 3.0 | 5.0 | 0.00 | 0.02 | 0.02 | 97 | 1006.2 |
| 20260509095009 | 50 | 171 | 2.0 | 5.0 | 0.00 | 0.02 | 0.02 | 97 | 1006.3 |
| 20260509094505 | 50 | 218 | 2.0 | 3.0 | 0.00 | 0.02 | 0.02 | 97 | 1006.5 |
| 20260509094002 | 50 | 129 | 2.0 | 5.0 | 0.00 | 0.02 | 0.02 | 97 | 1006.3 |
| 20260509093500 | 50 | 150 | 2.0 | 4.0 | 0.00 | 0.02 | 0.02 | 96 | 1006.3 |
| 20260509092957 | 50 | 236 | 1.0 | 4.0 | 0.00 | 0.02 | 0.02 | 96 | 1006.3 |
| 20260509092455 | 50 | 151 | 2.0 | 5.0 | 0.00 | 0.02 | 0.02 | 96 | 1006.2 |
| 20260509091954 | 50 | 188 | 2.0 | 3.0 | 0.00 | 0.02 | 0.02 | 96 | 1006.3 |
| 20260509091450 | 50 | 103 | 2.0 | 4.0 | 0.00 | 0.02 | 0.02 | 96 | 1006.3 |
| 20260509090947 | 51 | 182 | 2.0 | 4.0 | 0.00 | 0.02 | 0.02 | 96 | 1006.4 |
| 20260509090445 | 51 | 130 | 3.0 | 3.0 | 0.00 | 0.02 | 0.02 | 96 | 1006.5 |
| 20260509085942 | 51 | 169 | 2.0 | 6.0 | 0.00 | 0.02 | 0.02 | 96 | 1006.6 |
| 20260509085439 | 51 | 150 | 3.0 | 5.0 | 0.00 | 0.02 | 0.02 | 96 | 1006.5 |
| 20260509084935 | 51 | 107 | 1.0 | 3.0 | 0.00 | 0.02 | 0.02 | 96 | 1006.6 |
| 20260509084432 | 51 | 132 | 1.0 | 2.0 | 0.00 | 0.02 | 0.02 | 96 | 1006.5 |
| 20260509083930 | 51 | 169 | 3.0 | 3.0 | 0.00 | 0.02 | 0.02 | 96 | 1006.5 |
| 20260509083427 | 51 | 154 | 3.0 | 6.0 | 0.00 | 0.02 | 0.02 | 96 | 1006.4 |
| 20260509082923 | 51 | 96 | 0.0 | 3.0 | 0.00 | 0.02 | 0.02 | 96 | 1006.5 |
| 20260509082421 | 51 | 127 | 2.0 | 4.0 | 0.00 | 0.02 | 0.02 | 96 | 1006.5 |
| 20260509081917 | 51 | 117 | 2.0 | 2.0 | 0.00 | 0.02 | 0.02 | 96 | 1006.4 |
| 20260509081415 | 51 | 181 | 1.0 | 5.0 | 0.00 | 0.02 | 0.02 | 96 | 1006.4 |
| 20260509080912 | 51 | 109 | 2.0 | 4.0 | 0.00 | 0.02 | 0.02 | 96 | 1006.5 |
| 20260509080410 | 51 | 175 | 2.0 | 4.0 | 0.00 | 0.02 | 0.02 | 96 | 1006.6 |
| 20260509075908 | 50 | 190 | 4.0 | 6.0 | 0.00 | 0.02 | 0.02 | 97 | 1006.7 |
| 20260509075405 | 50 | 138 | 0.0 | 3.0 | 0.00 | 0.02 | 0.02 | 97 | 1006.5 |
| 20260509074902 | 50 | 130 | 0.0 | 4.0 | 0.00 | 0.02 | 0.02 | 97 | 1006.7 |
| 20260509074400 | 50 | 87 | 1.0 | 3.0 | 0.00 | 0.02 | 0.02 | 97 | 1006.7 |
| 20260509073855 | 50 | 171 | 1.0 | 4.0 | 0.00 | 0.02 | 0.02 | 98 | 1006.6 |
| 20260509073352 | 50 | 193 | 1.0 | 3.0 | 0.00 | 0.02 | 0.02 | 99 | 1006.7 |
| 20260509072849 | 50 | 192 | 2.0 | 4.0 | 0.00 | 0.02 | 0.02 | 99 | 1006.6 |
| 20260509072345 | 50 | 166 | 2.0 | 2.0 | 0.00 | 0.02 | 0.02 | 99 | 1006.6 |
| 20260509071842 | 50 | 124 | 2.0 | 4.0 | 0.00 | 0.02 | 0.02 | 99 | 1006.7 |
| 20260509071339 | 50 | 178 | 1.0 | 2.0 | 0.00 | 0.02 | 0.02 | 99 | 1006.6 |
| 20260509070836 | 50 | 195 | 2.0 | 4.0 | 0.00 | 0.02 | 0.02 | 99 | 1006.7 |
| 20260509070333 | 50 | 101 | 2.0 | 4.0 | 0.00 | 0.02 | 0.02 | 99 | 1006.8 |
| 20260509065829 | 50 | 115 | 1.0 | 3.0 | 0.00 | 0.02 | 0.02 | 99 | 1006.9 |
| 20260509065326 | 50 | 221 | 1.0 | 3.0 | 0.00 | 0.02 | 0.02 | 99 | 1007.0 |
| 20260509064821 | 50 | 117 | 2.0 | 4.0 | 0.00 | 0.02 | 0.02 | 99 | 1007.1 |
| 20260509064319 | 50 | 66 | 0.0 | 3.0 | 0.00 | 0.02 | 0.02 | 99 | 1007.1 |
| 20260509063817 | 50 | 146 | 3.0 | 4.0 | 0.00 | 0.02 | 0.02 | 99 | 1007.1 |
| 20260509063313 | 50 | 143 | 3.0 | 3.0 | 0.00 | 0.02 | 0.02 | 99 | 1007.3 |
| 20260509062810 | 50 | 191 | 2.0 | 3.0 | 0.00 | 0.02 | 0.02 | 98 | 1007.3 |
| 20260509062308 | 50 | 170 | 3.0 | 4.0 | 0.00 | 0.02 | 0.02 | 98 | 1007.5 |
| 20260509061804 | 49 | 201 | 2.0 | 4.0 | 0.00 | 0.02 | 0.02 | 98 | 1007.3 |
| 20260509061302 | 50 | 108 | 4.0 | 4.0 | 0.00 | 0.02 | 0.02 | 98 | 1007.5 |
| 20260509060759 | 50 | 115 | 1.0 | 4.0 | 0.00 | 0.02 | 0.02 | 98 | 1007.7 |
| 20260509060255 | 50 | 110 | 1.0 | 4.0 | 0.00 | 0.02 | 0.02 | 98 | 1007.6 |
| 20260509055745 | 50 | 167 | 0.0 | 5.0 | 0.02 | 0.02 | 0.02 | 97 | 1007.7 |
| 20260509055241 | 50 | 113 | 4.0 | 5.0 | 0.02 | 0.02 | 0.02 | 97 | 1007.8 |
| 20260509054738 | 50 | 153 | 4.0 | 7.0 | 0.05 | 0.02 | 0.02 | 97 | 1007.8 |
| 20260509054235 | 50 | 190 | 1.0 | 3.0 | 0.09 | 0.02 | 0.02 | 96 | 1008.0 |
| 20260509053734 | 50 | 99 | 9.0 | 12.0 | 0.05 | 0.01 | 0.01 | 95 | 1007.9 |
| 20260509053230 | 51 | 130 | 3.0 | 5.0 | 0.02 | 0.00 | 0.00 | 94 | 1008.1 |
| 20260509052728 | 51 | 136 | 3.0 | 5.0 | 0.00 | 0.00 | 0.00 | 93 | 1008.1 |
| 20260509052226 | 51 | 77 | 7.0 | 8.0 | 0.00 | 0.00 | 0.00 | 92 | 1008.1 |
| 20260509051723 | 51 | 152 | 4.0 | 5.0 | 0.00 | 0.00 | 0.00 | 92 | 1008.2 |
| 20260509051221 | 51 | 146 | 3.0 | 5.0 | 0.00 | 0.00 | 0.00 | 93 | 1008.3 |
| 20260509050717 | 51 | 109 | 0.0 | 6.0 | 0.00 | 0.00 | 0.00 | 93 | 1008.2 |
| 20260509050214 | 51 | 142 | 3.0 | 4.0 | 0.00 | 0.00 | 0.00 | 93 | 1008.3 |
| 20260509045711 | 51 | 126 | 3.0 | 3.0 | 0.00 | 0.00 | 0.00 | 93 | 1008.2 |
| 20260509045208 | 51 | 213 | 2.0 | 5.0 | 0.00 | 0.00 | 0.00 | 92 | 1008.6 |
| 20260509044705 | 51 | 87 | 4.0 | 6.0 | 0.00 | 0.00 | 0.00 | 92 | 1008.4 |
| 20260509044203 | 51 | 112 | 0.0 | 4.0 | 0.00 | 0.00 | 0.00 | 92 | 1008.3 |
| 20260509043659 | 51 | 102 | 3.0 | 5.0 | 0.00 | 0.00 | 0.00 | 91 | 1008.5 |
| 20260509043155 | 51 | 151 | 1.0 | 3.0 | 0.00 | 0.00 | 0.00 | 91 | 1008.3 |
| 20260509042651 | 51 | 119 | 1.0 | 5.0 | 0.00 | 0.00 | 0.00 | 91 | 1008.5 |
| 20260509042147 | 51 | 123 | 2.0 | 5.0 | 0.00 | 0.00 | 0.00 | 91 | 1008.6 |
| 20260509041644 | 51 | 149 | 2.0 | 4.0 | 0.00 | 0.00 | 0.00 | 91 | 1008.8 |
| 20260509041142 | 51 | 186 | 3.0 | 4.0 | 0.00 | 0.00 | 0.00 | 91 | 1008.9 |
| 20260509040640 | 51 | 127 | 2.0 | 4.0 | 0.00 | 0.00 | 0.00 | 91 | 1008.9 |
| 20260509040137 | 51 | 231 | 3.0 | 4.0 | 0.00 | 0.19 | 0.19 | 91 | 1008.9 |
| 20260509035633 | 51 | 137 | 1.0 | 5.0 | 0.00 | 0.19 | 0.19 | 91 | 1008.8 |
| 20260509035130 | 51 | 141 | 2.0 | 3.0 | 0.00 | 0.19 | 0.19 | 91 | 1008.9 |
| 20260509034628 | 51 | 139 | 5.0 | 6.0 | 0.00 | 0.19 | 0.19 | 90 | 1009.0 |
| 20260509034125 | 51 | 184 | 3.0 | 4.0 | 0.00 | 0.19 | 0.19 | 90 | 1009.1 |